Athens, GA

8:35 PM EST on November 15, 2019 (GMT -0500)
Athens / Epps

Weather History for KAHN - October, 2019

Change the Weather History Date:

Tuesday, October 15, 2019

  Actual Average Record
Temperature  
Mean Temperature 68 °F 63 °F  
Max Temperature 75 °F 75 °F 88 °F (1931)
Min Temperature 60 °F 52 °F 33 °F (2006)
Degree Days  
Heating Degree Days 0 4  
Month to date heating degree days 38  
Since 1 July heating degree days 48  
Cooling Degree Days 2 2  
Month to date cooling degree days 44  
Year to date cooling degree days 1859  
Growing Degree Days 18 (Base 50)    
Moisture  
Dew Point 57 °F    
Average Humidity 77    
Maximum Humidity 93    
Minimum Humidity 53    
Precipitation  
Precipitation 0.08 in 0.11 in 2.80 in (1914)
Month to date precipitation 1.89  
Year to date precipitation 37.12  
Snow  
Snow 0.00 in 0.00 in 0.00 in (2002)
Month to date snowfall 0.0  
Since 1 July snowfall 0.0  
Since 1 September snowfall 0.0  
Snow Depth -    
Sea Level Pressure  
Sea Level Pressure 30.05 in    
Wind  
Wind Speed 3 mph (ESE)    
Max Wind Speed 7 mph    
Max Gust Speed -    
Visibility 9 miles    
Events Rain    
T = Trace of Precipitation, MM = Missing Value Source: NWS Daily Summary

Daily Weather History Graph

Daily Weather History Graph

Search for Another Location

Airport or City:

Astronomy

Oct. 15, 2019 Rise Set
Actual Time 7:38 AM EDT 6:59 PM EDT
Civil Twilight 7:13 AM EDT 7:24 PM EDT
Nautical Twilight 6:43 AM EDT 7:53 PM EDT
Astronomical Twilight 6:15 AM EDT 8:22 PM EDT
Moon 8:22 PM EDT (10/15) 9:05 AM EDT (10/15)
Length of Visible Light 12h 11m
Length of Day
11h 21m
Full, 97% of the Moon is Illuminated
Oct 15
Full
Oct 21
Last Quarter
Oct 27
New
Nov 4
First Quarter
Nov 12
Full

Hourly Weather History & Observations

Time (EDT) Temp. Dew Point Humidity Pressure Visibility Wind Dir Wind Speed Gust Speed Precip Events Conditions
12:51 AM 60.1 °F 50.0 °F 69% 30.09 in 10.0 mi Calm Calm - N/A   Clear
2:51 AM 61.0 °F 53.1 °F 75% 30.09 in 10.0 mi Calm Calm - N/A   Mostly Cloudy
3:51 AM 61.0 °F 53.1 °F 75% 30.09 in 10.0 mi Calm Calm - N/A   Overcast
5:51 AM 60.1 °F 57.0 °F 90% 30.09 in 10.0 mi South 3.5 mph - 0.00 in Rain Light Rain
6:51 AM 60.1 °F 57.9 °F 93% 30.10 in 10.0 mi Calm Calm - 0.00 in   Overcast
7:51 AM 61.0 °F 55.9 °F 83% 30.11 in 10.0 mi ENE 3.5 mph - N/A   Overcast
8:51 AM 61.0 °F 55.9 °F 83% 30.10 in 10.0 mi ESE 4.6 mph - N/A   Mostly Cloudy
9:51 AM 64.0 °F 55.0 °F 73% 30.11 in 10.0 mi East 4.6 mph - N/A   Overcast
10:51 AM 64.9 °F 55.9 °F 73% 30.12 in 10.0 mi East 5.8 mph - N/A   Overcast
11:51 AM 66.0 °F 57.0 °F 73% 30.10 in 10.0 mi East 6.9 mph - N/A   Overcast
12:51 PM 69.1 °F 55.9 °F 63% 30.09 in 10.0 mi Variable 3.5 mph - N/A   Overcast
2:51 PM 75.0 °F 57.0 °F 53% 30.04 in 10.0 mi Calm Calm - N/A   Overcast
4:51 PM 71.1 °F 60.1 °F 68% 30.01 in 10.0 mi South 3.5 mph - N/A   Overcast
5:38 PM 70.0 °F 61.0 °F 73% 30.01 in 10.0 mi East 3.5 mph - N/A   Overcast
5:51 PM 70.0 °F 61.0 °F 73% 30.00 in 10.0 mi ESE 5.8 mph - N/A   Overcast
6:12 PM 68.0 °F 59.0 °F 73% 30.01 in 10.0 mi East 4.6 mph - N/A   Overcast
7:51 PM 66.0 °F 57.0 °F 73% 29.99 in 10.0 mi ENE 6.9 mph - N/A   Overcast
8:51 PM 64.9 °F 57.9 °F 78% 29.97 in 10.0 mi ESE 5.8 mph - N/A   Mostly Cloudy
9:12 PM 64.0 °F 59.0 °F 84% 29.97 in 10.0 mi ENE 5.8 mph - N/A   Overcast
11:27 PM 62.1 °F 59.0 °F 90% 29.97 in 2.5 mi ESE 3.5 mph - 0.01 in Rain Light Rain
11:33 PM 61.0 °F 59.0 °F 93% 29.97 in 2.5 mi ESE 6.9 mph - 0.01 in Rain Light Rain
11:41 PM 62.1 °F 60.1 °F 93% 29.96 in 4.0 mi East 5.8 mph - 0.01 in   Overcast